Погода в Майрингене

Швейцария     46°43′38″N   8°11′14″E
темп.,
°C
ветер,
м/с
пор.,
м/с
влажн.,
%
обл.,
%
осадки,
мм/ч
давл.,
гПа
погр.,
м
17 августа, ср
ср1723:00+12ююв338115 0.1 101454
02:00+11ююв448219 0.1 101575
05:00+11ю338263 0.0 101550
08:00+13ююв2381100 0.1 101489
11:00+17вюв1363100 0.4 1013923
14:00+20вюв134565 0.7 10121962
17:00+19юв1249100 0.4 10121403
20:00+13юв2283100 1.0 101346
18 августа, чт
чт1823:00+11ю2289100 0.8 101562
02:00+11зсз1197100 1.2 101566
05:00+10сз11100100 2.9 1014107
08:00+10с1198100 5.3 1015100
11:00+11с129590 1.0 1015310
14:00+12ссз2195100 2.6 1014333
17:00+13с218882 2.0 1014407
20:00+11ссз2299100 4.6 1014140
19 августа, пт
пт1923:00+11сз12100100 9.6 1015137
02:00+10зсз1298100 10.3 1014118
05:00+9з2299100 2.6 1014116
08:00+9зсз23100100 10.1 1016143
11:00+10сз2299100 2.6 1017157
14:00+14сз337398 3.1 1017941
17:00+15ссз346422 0.5 10181163
20:00+12зсз128152 0.8 101954
20 августа, сб
сб2023:00+10з1191100 0.3 102135
02:00+10зюз1292100 0.6 102068
05:00+10зюз119370 0.5 102062
08:00+10ю119253 0.7 102184
11:00+14ссз227236 0.3 1020927
14:00+15ссз226495 0.5 10201287
17:00+14сз118171 0.3 1020357
20:00+12сз118932 0.5 102136
21 августа, вс
вс2123:00+10ю119229 0.0 102227
02:00+9ююв118927 0.1 102118
05:00+9ююв1189100 0.0 102013
08:00+11ю1185100 0.0 102042
11:00+14с2173100 0.1 1019822
14:00+15ссз327796 0.9 1019634
17:00+14ссз2285100 2.3 1019558
20:00+12ююз0189100 3.6 101944